If you wish to contribute or participate in the discussions about articles you are invited to join SKYbrary as a registered user

 Actions

Blackpool Airport

From SKYbrary Wiki

EGNH
Airport
ICAO: EGNH – IATA: BLK
Summary
Name Blackpool Airport
Region Europe
Territory United Kingdom GB.gif
Location St Annes-on-the-Sea, Lancashire, England
Serving Blackpool
Elevation 10.363 m
34 ft
34 ft10.363 m
Coordinates 53° 46' 17.00" N, 3° 1' 41.99" W
Runways
Designator Length Width Surface ROPS
7/25 799 m2,621.391 ft
30 m98.425 ft
ASP no/no
10/28 1869 m6,131.89 ft
46 m150.919 ft
ASP yes/yes
13/31 1077 m3,533.465 ft
23 m75.459 ft
ASP yes/yes


METAR
Observation EGNH 291320Z 25022KT 3000 RA BKN003 13/12 Q1003
Station Blackpool Airport
Date/Time 29 October 2020 13:20:00
Wind direction 250°
Wind speed 22 kts
Lowest cloud amount broken clouds
Temperature 13°C
Dew point 12°C
Humidity 93%
QNH 1003 hPa
Weather condition n/a

Privately owned airport near Blackpool, Lancashire, England.

Climatology

Temperate Marine climate/Oceanic climate (Köppen climate classification Cfb).

Maps

Terrain

Loading map...

Airport Layout

Loading map...


Accidents & Serious Incidents at or in vicinity of EGNH

None on SKYbrary